Location: Bratislava
(48.1500°N, 17.1170°E)
Time: 05:51:57
(UTC+01:00)

ISS - Visible Passes

Search period start: 23 February 2018 00:00
Search period end: 05 March 2018 00:00
Orbit: 402 x 407 km, 51.6° (Epoch: 23 February)

Date Brightness Start Highest point End Pass type
(mag) Time Alt. Az. Time Alt. Az. Time Alt. Az.
27 Feb -1.1 05:33:21 10° S 05:35:37 18° SE 05:37:53 10° E visible
28 Feb -0.7 04:43:03 10° SE 04:43:34 10° SE 04:44:06 10° SE visible
01 Mar -2.3 05:24:15 10° SSW 05:27:14 34° SE 05:30:15 10° E visible
02 Mar -1.7 04:34:04 18° SSE 04:35:05 21° SE 04:37:38 10° E visible
03 Mar -0.6 03:44:04 11° ESE 03:44:04 11° ESE 03:44:29 10° ESE visible
03 Mar -3.6 05:16:44 19° SW 05:18:56 65° SSE 05:22:11 10° ENE visible
04 Mar -2.9 04:26:36 40° SSE 04:26:40 40° SSE 04:29:46 10° ENE visible
